SCD 1 1 22490U 93009B 25289.06163522 .00000703 00000+0 14159-3 0 9991 2 22490 24.9695 274.7296 0042287 74.6259 340.4886 14.45945683725744 TECHSAT 1B (GO-32) 1 25397U 98043D 25289.10493220 .00000176 00000+0 96112-4 0 9993 2 25397 98.9867 271.0005 0001326 152.0420 208.0829 14.24352647416587 SCD 2 1 25504U 98060A 25288.88819770 .00000640 00000+0 12796-3 0 9999 2 25504 24.9937 138.5944 0016961 62.0575 320.5330 14.45374061424948 DLR-TUBSAT 1 25757U 99029B 25289.20768470 .00000244 00000+0 71895-4 0 9998 2 25757 98.6514 271.9599 0014541 16.7544 343.4128 14.52323516397832 TERRA 1 25994U 99068A 25289.12616468 .00000785 00000+0 16979-3 0 9995 2 25994 97.9838 342.8976 0000946 294.1831 93.9450 14.60853521373975 MAROC-TUBSAT 1 27004U 01056D 25289.13518568 -.00000018 00000+0 32443-4 0 9997 2 27004 99.7907 96.5757 0020416 49.5653 59.6351 13.70249016192767 AQUA 1 27424U 02022A 25289.20093073 .00001580 00000+0 32769-3 0 9998 2 27424 98.3942 249.1816 0001796 61.3487 66.0336 14.61599552247621 IRS-P6 (RESOURCESAT-1) 1 28051U 03046A 25289.16839806 .00000213 00000+0 85550-4 0 9998 2 28051 98.2268 332.2153 0063993 355.5788 94.9102 14.36038026145506 SHIYAN-1 (SY-1) 1 28220U 04012A 25289.13092897 .00016175 00000+0 63006-3 0 9993 2 28220 97.9026 347.3408 0007507 149.2088 210.9591 15.26044365173777 AURA 1 28376U 04026A 25289.11772968 .00001561 00000+0 32990-3 0 9993 2 28376 98.3083 239.1155 0001493 67.1452 292.9906 14.60737992130578 IRS-P5 (CARTOSAT-1) 1 28649U 05017A 25289.07227977 .00002104 00000+0 22298-3 0 9991 2 28649 97.5575 318.0293 0002314 115.5545 244.5913 14.90110914107456 SINAH 1 1 28893U 05043D 25289.13086654 .00000809 00000+0 16408-3 0 9999 2 28893 98.2547 57.5570 0013747 324.7858 35.2434 14.63864113 64812 EROS B 1 29079U 06014A 25289.19553904 .00098041 00000+0 15706-2 0 9992 2 29079 97.3505 43.7803 0005272 294.0726 65.9975 15.52745719 81836 RESURS-DK 1 1 29228U 06021A 25289.00667390 .00004440 00000+0 26634-3 0 9994 2 29228 69.9323 250.9815 0006411 313.7836 46.2798 15.11677587 65656 ARIRANG-2 (KOMPSAT-2) 1 29268U 06031A 25289.19373678 .00000651 00000+0 13130-3 0 9999 2 29268 97.8315 120.4631 0015560 124.6696 1.7965 14.64417758 25765 LAPAN-TUBSAT 1 29709U 07001A 25289.19297681 .00001067 00000+0 12998-3 0 9999 2 29709 98.1229 278.1786 0010812 259.1515 100.8482 14.85542885 14928 HAIYANG-1B 1 31113U 07010A 25288.90717652 .00000206 00000+0 94279-4 0 9991 2 31113 98.3271 275.5866 0012954 200.9842 159.0812 14.30936910965693 COSMO-SKYMED 1 1 31598U 07023A 25289.17824214 .00004950 00000+0 45606-3 0 9994 2 31598 97.8872 114.2187 0001052 85.9284 274.2056 14.95169093993292 TERRASAR-X 1 31698U 07026A 25286.71270451 .00002426 00000+0 11864-3 0 9998 2 31698 97.4474 292.9635 0001777 84.9030 275.2407 15.19160106 15807 WORLDVIEW-1 (WV-1) 1 32060U 07041A 25288.76360800 .00010907 00000+0 43868-3 0 9996 2 32060 97.3862 47.0683 0002666 226.0719 134.0299 15.25076566 5649 YAOGAN-3 1 32289U 07055A 25289.18362718 .00003528 00000+0 37674-3 0 9990 2 32289 97.8445 316.3217 0001742 103.4897 256.6515 14.89444953969524 COSMO-SKYMED 2 1 32376U 07059A 25289.17810382 .00000948 00000+0 12562-3 0 9997 2 32376 97.8897 111.3411 0001385 86.0860 274.0512 14.82152161965853 RADARSAT-2 1 32382U 07061A 25289.18936859 .00000134 00000+0 69047-4 0 9994 2 32382 98.5815 294.6072 0001149 90.4212 269.7102 14.29983685931082 CARTOSAT-2A 1 32783U 08021A 25289.15857094 .00001260 00000+0 17814-3 0 9991 2 32783 97.8019 340.7591 0011866 177.6084 182.5186 14.78768665942737 HUANJING 1A (HJ-1A) 1 33320U 08041A 25289.21981905 .00002292 00000+0 28659-3 0 9992 2 33320 97.6510 279.9395 0018184 215.7090 144.2909 14.83134830922233 HUANJING 1B (HJ-1B) 1 33321U 08041B 25289.22449044 .00001997 00000+0 25191-3 0 9996 2 33321 97.6379 283.7854 0035198 263.9957 95.7246 14.82605740922259 GEOEYE 1 1 33331U 08042A 25289.13779042 .00000952 00000+0 18781-3 0 9999 2 33331 98.1310 1.1241 0005308 96.0209 264.1599 14.64695053914427 THEOS 1 33396U 08049A 25289.18784639 .00000104 00000+0 69006-4 0 9996 2 33396 98.5951 348.9505 0001069 89.0777 271.0522 14.20077651883338 COSMO-SKYMED 3 1 33412U 08054A 25289.15645197 .00005791 00000+0 41594-3 0 9991 2 33412 97.8539 138.5909 0017020 17.2136 342.9663 15.04582255920215 YAOGAN-4 1 33446U 08061A 25288.76256616 .00001866 00000+0 23910-3 0 9997 2 33446 97.9097 219.4704 0015316 141.6665 218.5640 14.82420518909442 GOSAT (IBUKI) 1 33492U 09002A 25289.18333426 .00001322 00000+0 24154-3 0 9994 2 33492 98.0735 38.5987 0001566 94.7030 265.4353 14.67558092895676 DEIMOS-1 1 35681U 09041A 25289.18320050 .00001169 00000+0 18157-3 0 9993 2 35681 97.7131 92.4797 0000244 154.0414 206.0808 14.74816186870915 DUBAISAT-1 1 35682U 09041B 25289.11211128 .00002363 00000+0 36374-3 0 9990 2 35682 97.9730 60.6716 0011527 130.7000 229.5212 14.74354052869128 OCEANSAT-2 1 35931U 09051A 25289.14266050 -.00000061 00000+0 -16335-4 0 9996 2 35931 98.2232 295.5762 0016381 200.5598 159.4911 13.99606818845191 WORLDVIEW-2 (WV-2) 1 35946U 09055A 25289.17826547 .00000230 00000+0 91401-4 0 9995 2 35946 98.4792 1.0685 0003301 214.7409 145.3563 14.37540099840586 SMOS 1 36036U 09059A 25289.11866740 .00000572 00000+0 19633-3 0 9998 2 36036 98.4418 115.0098 0001139 85.2204 274.9114 14.39784836838339 YAOGAN-7 1 36110U 09069A 25289.13862378 .00000883 00000+0 13021-3 0 9997 2 36110 98.0343 171.0953 0026142 104.9239 255.4869 14.77600308853583 TANDEM-X 1 36605U 10030A 25286.64683663 .00002254 00000+0 11046-3 0 9996 2 36605 97.4471 292.9004 0002033 94.7216 265.4251 15.19159173849218 CARTOSAT-2B 1 36795U 10035A 25289.19428975 -.00000039 00000+0 15729-5 0 9991 2 36795 97.7942 340.0651 0010498 262.2918 97.7101 14.78727794823791 YAOGAN-10 1 36834U 10038A 25289.22443773 .00001177 00000+0 14629-3 0 9994 2 36834 97.9205 309.4629 0001458 96.2265 34.4470 14.84432145821008 COSMO-SKYMED 4 1 37216U 10060A 25289.19076757 .00000914 00000+0 12139-3 0 9996 2 37216 97.8890 111.3547 0001500 84.7369 275.4015 14.82162749808427 RESOURCESAT-2 1 37387U 11015A 25289.14179892 .00000147 00000+0 87229-4 0 9996 2 37387 98.7953 352.9304 0005695 190.5403 169.5655 14.21593168751509 HAIYANG-2A 1 37781U 11043A 25289.23439454 .00000022 00000+0 65269-4 0 9990 2 37781 99.3382 291.0497 0000535 149.6839 210.4344 13.78828807713064 RASAT 1 37791U 11044D 25289.22948543 .00001085 00000+0 19833-3 0 9990 2 37791 98.0668 19.3404 0019561 244.1019 169.6835 14.67781265757396 SRMSAT 1 37841U 11058D 25288.83716199 .00000522 00000+0 13994-3 0 9994 2 37841 19.9713 98.3809 0011801 35.7874 16.4418 14.11481236723251 PLEIADES 1A 1 38012U 11076F 25289.18290762 .00000617 00000+0 14252-3 0 9990 2 38012 98.1879 2.8220 0001353 108.0876 336.5315 14.58535143736421 ZIYUAN 1-02C (ZY 1-02C) 1 38038U 11079A 25289.21406414 .00000742 00000+0 26003-3 0 9994 2 38038 98.4405 356.2703 0005648 325.8842 127.5611 14.37915799724141 ZIYUAN 3-1 (ZY 3-1) 1 38046U 12001A 25289.19569206 .00051425 00000+0 63150-3 0 9993 2 38046 97.1863 354.6210 0003094 167.4433 192.6902 15.60143477765973 ARIRANG-3 (KOMPSAT-3) 1 38338U 12025B 25289.17149823 .00001015 00000+0 21385-3 0 9994 2 38338 98.3216 243.3622 0006637 135.8183 224.3548 14.61597089715695 EXACTVIEW-1 (ADS-1B) 1 38709U 12039C 25289.02254353 .00000293 00000+0 14509-3 0 9997 2 38709 98.9607 36.2145 0011429 150.9597 209.2219 14.24871772687933 SPOT 6 1 38755U 12047A 25289.18211266 .00000588 00000+0 13620-3 0 9990 2 38755 98.1645 355.0043 0001002 95.0553 265.0761 14.58580609697480 PLEIADES 1B 1 39019U 12068A 25289.20077865 .00000627 00000+0 14463-3 0 9995 2 39019 98.1851 2.7423 0001350 99.0637 261.0715 14.58585089685281 GOKTURK 2 1 39030U 12073A 25289.19912394 .00000972 00000+0 15088-3 0 9994 2 39030 97.6960 133.6677 0002004 76.1082 284.0351 14.75173523688538 LANDSAT 8 1 39084U 13008A 25289.17998416 .00000560 00000+0 13430-3 0 9991 2 39084 98.2137 358.0825 0001253 92.1607 267.9735 14.57115860662363 SARAL 1 39086U 13009A 25289.11267291 .00000221 00000+0 97429-4 0 9993 2 39086 98.5536 113.7890 0000941 315.1033 45.0075 14.32727247660656 GAOFEN-1 1 39150U 13018A 25289.16682402 .00001193 00000+0 17828-3 0 9998 2 39150 97.9387 0.8244 0017367 336.4042 23.6369 14.76498382672238 VNREDSAT 1 1 39160U 13021B 25289.17531865 .00000471 00000+0 96948-4 0 9999 2 39160 97.9458 346.4461 0001466 101.5469 258.5899 14.64789002664568 ARIRANG-5 (KOMPSAT-5) 1 39227U 13042A 25288.34880927 -.00000091 00000+0 -21782-5 0 9995 2 39227 97.6197 113.4732 0001031 240.1494 119.9630 15.04497244667046 SKYSAT-A 1 39418U 13066C 25289.13771091 .00004255 00000+0 25694-3 0 9990 2 39418 97.4205 341.0927 0024090 78.7518 281.6418 15.10985245651609 DUBAISAT-2 1 39419U 13066D 25289.18323947 .00006030 00000+0 39980-3 0 9995 2 39419 97.4435 281.4064 0012941 142.7203 217.4926 15.07563663649597 GPM-CORE 1 39574U 14009C 25289.13671016 .00018077 00000+0 38981-3 0 9997 2 39574 64.9763 45.6245 0007164 256.0471 103.9873 15.44651529660111 SENTINEL-1A 1 39634U 14016A 25288.08762065 .00000289 00000+0 71064-4 0 9996 2 39634 98.1823 294.1854 0001337 90.0060 270.1293 14.59202019614277 KAZEOSAT 1 1 39731U 14024A 25288.85229031 .00000390 00000+0 13185-3 0 9991 2 39731 98.3492 2.0425 0001145 101.3058 258.8261 14.42064733603344 ALOS-2 1 39766U 14029A 25288.51111723 .00004139 00000+0 56096-3 0 9998 2 39766 97.9224 24.1862 0001572 104.5382 255.6004 14.79458929615403 KAZEOSAT 2 1 40010U 14033A 25289.15232242 .00001152 00000+0 14075-3 0 9991 2 40010 97.5576 136.4243 0009854 51.2261 308.9834 14.85029338612739 HODOYOSHI-4 1 40011U 14033B 25289.15497017 .00002404 00000+0 27150-3 0 9994 2 40011 97.5462 120.8766 0024945 37.0639 323.2295 14.87185745612525 DEIMOS-2 1 40013U 14033D 25289.20179638 .00003587 00000+0 35392-3 0 9998 2 40013 97.6120 166.8977 0002358 75.8322 284.3159 14.92594023601316 HODOYOSHI-3 1 40015U 14033F 25288.99805558 .00002901 00000+0 34675-3 0 9994 2 40015 97.6192 97.3622 0034738 79.2907 281.2217 14.84501760611382 SPOT 7 1 40053U 14034A 25289.20012990 .00000860 00000+0 18614-3 0 9999 2 40053 98.0983 352.5819 0001051 93.3154 266.8167 14.60622752601510 SKYSAT-B 1 40072U 14037D 25289.09259943 .00002875 00000+0 32770-3 0 9998 2 40072 98.3503 229.8017 0005817 5.9887 354.1396 14.86991252609676 WORLDVIEW-3 (WV-3) 1 40115U 14048A 25289.17905882 .00001608 00000+0 19338-3 0 9995 2 40115 97.8672 2.1745 0005799 41.2442 318.9210 14.85292653605693 GAOFEN-2 1 40118U 14049A 25289.22676253 .00001598 00000+0 21612-3 0 9998 2 40118 98.0468 348.2754 0005384 312.0915 47.9838 14.80420935603133 YAOGAN-21 1 40143U 14053A 25289.22009868 .00009631 00000+0 39724-3 0 9992 2 40143 97.1854 334.9969 0011399 269.8130 90.1802 15.24197938617781 YAOGAN-22 1 40275U 14063A 25289.13692616 -.00000006 00000+0 10877-3 0 9994 2 40275 100.7375 71.7579 0006458 24.3471 335.7944 13.15518525527727 ASNARO 1 40298U 14070A 25285.69576253 -.00000068 00000+0 -70312-7 0 9995 2 40298 97.3705 3.1128 0002154 251.6151 108.4850 15.19565870606425 YAOGAN-24 1 40310U 14072A 25289.19644876 .00001524 00000+0 22785-3 0 9991 2 40310 98.1172 59.9999 0012914 333.7663 26.2890 14.76165516587724 CBERS 4 1 40336U 14079A 25289.22147527 .00000223 00000+0 92302-4 0 9999 2 40336 98.3392 349.1803 0000868 49.5377 310.5885 14.35526373568959 YAOGAN-26 1 40362U 14088A 25289.21645959 .00018550 00000+0 52067-3 0 9994 2 40362 97.0667 292.0489 0004682 183.9388 176.1821 15.36590061600105 SMAP 1 40376U 15003A 25289.11397580 .00000941 00000+0 19111-3 0 9998 2 40376 98.1312 294.6572 0001679 101.2516 258.8875 14.63371460571922 KOMPSAT-3A 1 40536U 15014A 25289.20384725 .00023620 00000+0 57343-3 0 9993 2 40536 97.6711 260.5251 0004233 35.1262 325.0262 15.41019884584089 SENTINEL-2A 1 40697U 15028A 25288.73913546 .00000219 00000+0 10020-3 0 9992 2 40697 98.5682 2.0887 0001164 96.3563 263.7753 14.30824369538778 GAOFEN-8 1 40701U 15030A 25289.22371274 .00015973 00000+0 45940-3 0 9994 2 40701 97.6944 104.6801 0011075 351.5101 8.5953 15.35824597573872 CARBONITE 1 (CBNT-1) 1 40718U 15032D 25289.14470124 .00003275 00000+0 41475-3 0 9990 2 40718 97.6434 112.7348 0015226 20.2748 339.9068 14.82355198553175 YAOGAN-27 1 40878U 15040A 25289.22877306 .00000013 00000+0 14499-3 0 9991 2 40878 100.0977 281.4544 0008852 59.8448 300.3542 13.16056330485576 GAOFEN-9 01 1 40894U 15047A 25289.21798516 .00001799 00000+0 23066-3 0 9992 2 40894 97.6635 330.6372 0026763 217.7541 142.1796 14.82201892544042 YAOGAN-28 1 41026U 15064A 25287.40525205 .00000034 00000+0 42412-5 0 9990 2 41026 97.2753 66.9438 0009052 343.6152 16.4792 15.23790016553213 YAOGAN-29 1 41038U 15069A 25289.19216422 .00000785 00000+0 10376-3 0 9999 2 41038 98.0286 312.1594 0002892 94.8644 265.2899 14.82787397534461 KENT RIDGE 1 1 41167U 15077B 25289.07636094 .00006543 00000+0 25335-3 0 9998 2 41167 14.9799 278.7828 0008581 39.1972 320.8970 15.20981549543842 GAOFEN-4 1 41194U 15083A 25285.93761370 -.00000345 00000+0 00000+0 0 9995 2 41194 0.1092 77.6747 0001575 129.6462 257.6450 1.00266994 36059 JASON-3 1 41240U 16002A 25289.19680536 -.00000021 00000+0 16266-3 0 9991 2 41240 66.0402 278.8021 0007873 267.2217 92.7901 12.87625823455838 SENTINEL-3A 1 41335U 16011A 25289.16452360 .00000184 00000+0 94244-4 0 9997 2 41335 98.6279 355.0152 0001196 99.9239 260.2077 14.26735338503260 ZIYUAN 3-2 (ZY 3-2) 1 41556U 16033A 25289.16752236 .00010653 00000+0 47515-3 0 9991 2 41556 97.4098 4.2739 0010690 98.3184 261.9264 15.21528210520884 CARTOSAT-2C 1 41599U 16040A 25289.16517346 .00007452 00000+0 35617-3 0 9990 2 41599 97.4282 347.0227 0010555 264.0713 95.9319 15.19253017516660 SKYSAT-C1 1 41601U 16040C 25289.10562407 .00011151 00000+0 37327-3 0 9997 2 41601 96.9927 329.3990 0003485 144.7247 215.4227 15.31103181520453 LAPAN-A3 1 41603U 16040E 25289.18697765 .00005476 00000+0 18560-3 0 9994 2 41603 97.1431 288.8634 0011342 159.7538 200.4156 15.30891827517453 BIROS 1 41604U 16040F 25289.05528889 .00084641 00000+0 59457-3 0 9992 2 41604 97.0782 318.9276 0005238 70.1527 290.0303 15.73893293519615 GAOFEN-3 1 41727U 16049A 25289.22075881 .00000148 00000+0 58199-4 0 9998 2 41727 98.4060 295.6738 0001260 111.4385 248.6939 14.42213109483487 SKYSAT-C4 1 41771U 16058B 25289.07398822 .00016995 00000+0 42742-3 0 9996 2 41771 96.9464 317.1321 0003654 85.4787 274.6877 15.39999007507796 SKYSAT-C5 1 41772U 16058C 25289.09109725 .00014097 00000+0 40274-3 0 9990 2 41772 97.0864 335.0523 0002189 241.3017 118.8007 15.36102568506313 SKYSAT-C2 1 41773U 16058D 25289.10488786 .00014549 00000+0 42404-3 0 9999 2 41773 97.0447 316.1239 0003088 180.1482 179.9762 15.35465125507519 SKYSAT-C3 1 41774U 16058E 25289.05925323 .00022101 00000+0 52569-3 0 9993 2 41774 96.9399 325.5744 0002607 88.8795 271.2752 15.41645098508361 ALSAT 1B 1 41785U 16059C 25289.16294784 .00000757 00000+0 12809-3 0 9994 2 41785 97.7857 303.4256 0008010 294.8543 65.1831 14.71975816484679 PATHFINDER 1 1 41787U 16059E 25289.09708352 .00001324 00000+0 24248-3 0 9990 2 41787 97.8156 294.5434 0027187 264.3732 95.4372 14.67169660483919 SCATSAT 1 1 41790U 16059H 25289.14222648 .00001939 00000+0 26591-3 0 9994 2 41790 98.1549 345.0779 0054570 314.9793 44.7000 14.78640928 65512 GOKTURK 1A 1 41875U 16073A 25289.18065228 .00000815 00000+0 16877-3 0 9995 2 41875 98.1445 182.3070 0001341 79.5622 280.5731 14.62831367473156 RESOURCESAT-2A 1 41877U 16074A 25287.57584074 .00000215 00000+0 11830-3 0 9992 2 41877 98.7826 357.7563 0002998 81.3730 278.7786 14.21604793459409 CARTOSAT-2D 1 41948U 17008A 25289.19992520 .00006371 00000+0 30539-3 0 9994 2 41948 97.4475 347.5446 0005254 17.4424 342.6991 15.19250054480531 SENTINEL-2B 1 42063U 17013A 25289.22149360 .00000220 00000+0 10057-3 0 9999 2 42063 98.5684 2.5002 0000981 93.0324 267.0971 14.30815376449754 ZHUHAI-1 02 (CAS-4B) 1 42759U 17034B 25286.97241530 .03437790 89859-5 10544-2 0 9999 2 42759 42.9888 273.3261 0008256 129.3938 230.7682 16.25684504462559 CARTOSAT-2E 1 42767U 17036C 25289.14990463 .00007218 00000+0 34478-3 0 9991 2 42767 97.4643 347.4592 0003770 78.6315 281.5343 15.19329395461095 FORMOSAT-5 1 42920U 17049A 25289.19190257 .00000318 00000+0 91531-4 0 9992 2 42920 98.2503 4.6391 0012225 107.1941 253.0593 14.50953671431291 SENTINEL-5P 1 42969U 17064A 25289.10904351 .00000156 00000+0 94800-4 0 9993 2 42969 98.7682 228.2322 0001017 91.9674 268.1618 14.19558949414936 SKYSAT-C11 1 42987U 17068A 25288.35314390 .00025090 00000+0 54885-3 0 9993 2 42987 97.4095 64.5692 0000806 77.5457 282.5882 15.44137043445298 SKYSAT-C10 1 42988U 17068B 25289.12024806 .00016245 00000+0 52045-3 0 9998 2 42988 97.4210 59.8384 0001551 89.8277 270.3143 15.32448023444976 SKYSAT-C9 1 42989U 17068C 25288.94134284 .00003211 00000+0 97715-4 0 9993 2 42989 97.4167 58.8362 0007150 303.9943 56.0620 15.34745636445213 SKYSAT-C8 1 42990U 17068D 25289.16996601 .00014445 00000+0 45745-3 0 9995 2 42990 97.4226 58.9823 0001878 90.1530 269.9927 15.32845349444890 SKYSAT-C7 1 42991U 17068E 25289.11413551 .00015290 00000+0 49646-3 0 9992 2 42991 97.4233 60.0010 0002717 255.7042 104.3898 15.32029198444953 SKYSAT-C6 1 42992U 17068F 25288.34246323 .00013260 00000+0 44236-3 0 9993 2 42992 97.4268 59.7141 0002433 173.9832 186.1439 15.31190458444827 CARTOSAT-2F 1 43111U 18004A 25289.18344767 .00007885 00000+0 37714-3 0 9991 2 43111 97.4404 347.7227 0001569 38.4985 321.6361 15.19255635430281 GAOFEN-1 02 1 43259U 18031A 25289.18683052 .00001469 00000+0 21836-3 0 9997 2 43259 98.0891 346.9276 0003307 72.1060 288.0510 14.76503305406699 GAOFEN-1 03 1 43260U 18031B 25289.16517348 .00001501 00000+0 22282-3 0 9994 2 43260 98.0883 346.7884 0003541 110.3403 249.8187 14.76523583406685 GAOFEN-1 04 1 43262U 18031D 25286.42997343 .00000043 00000+0 13696-4 0 9999 2 43262 98.0898 344.2117 0001070 133.1324 226.9975 14.76441283406277 SENTINEL-3B 1 43437U 18039A 25289.13763661 .00000780 00000+0 34028-3 0 9995 2 43437 98.6340 355.1273 0000396 97.1268 262.9958 14.26738339389322 GAOFEN-5 01 1 43461U 18043A 25289.16300830 .00000748 00000+0 16486-3 0 9997 2 43461 98.4231 251.1568 0002966 103.3087 256.8444 14.60310550396073 GAOFEN-6 1 43484U 18048A 25289.18522505 .00001314 00000+0 19549-3 0 9997 2 43484 97.8104 355.3602 0010406 241.4800 118.5363 14.76517794397386 GAOFEN-11 01 1 43585U 18063A 25289.22614470 .00018368 00000+0 36497-3 0 9992 2 43585 97.1649 352.7077 0006873 140.9864 219.1883 15.46996960402520 ICESAT-2 1 43613U 18070A 25289.11500557 .00016186 00000+0 58714-3 0 9992 2 43613 92.0005 225.1919 0007953 76.4061 283.8073 15.28260973395182 HYSIS 1 43719U 18096A 25289.19100381 .00002085 00000+0 29202-3 0 9999 2 43719 98.0172 352.4273 0000997 121.1377 238.9932 14.78598386371361 KAZSTSAT 1 43783U 18099AB 25289.06854442 .00002429 00000+0 20442-3 0 9992 2 43783 97.4638 326.7292 0008594 128.4386 231.7611 14.99104169374721 SAUDISAT 5A 1 43831U 18102A 25289.18521090 .00008957 00000+0 36542-3 0 9994 2 43831 97.3439 350.5029 0008818 277.6886 82.3351 15.24620961378454 SAUDISAT 5B 1 43833U 18102C 25289.18958160 .00008369 00000+0 33770-3 0 9995 2 43833 97.3528 353.1432 0009535 280.9436 79.0729 15.25006840378566 GAOFEN-10R 1 44622U 19066A 25289.16366451 .00002659 00000+0 33608-3 0 9992 2 44622 98.0173 236.4775 0006544 202.5445 157.5481 14.82719667326219 CARTOSAT-3 1 44804U 19081A 25289.19689267 .00005885 00000+0 28220-3 0 9995 2 44804 97.4669 349.4802 0012865 286.0863 73.8955 15.19212240326429 GAOFEN-12 01 1 44819U 19082A 25289.16402769 .00000872 00000+0 12045-3 0 9998 2 44819 97.8150 296.9498 0004103 83.2417 276.9262 14.80556400317983 CSG-1 1 44873U 19092A 25289.20342079 .00000984 00000+0 13009-3 0 9996 2 44873 97.8898 111.3673 0001529 86.6146 273.5242 14.82158343315336 NEMO-HD 1 46277U 20061F 25289.17013963 .00014491 00000+0 38127-3 0 9993 2 46277 97.2301 349.0432 0001690 134.8443 225.2940 15.38661125284385 SENTINEL-6 1 46984U 20086A 25289.09818041 -.00000025 00000+0 15650-3 0 9991 2 46984 66.0396 282.0297 0007989 268.4733 91.5368 12.80928647229067 GAOFEN-12 02 1 48079U 21026A 25289.23027106 .00000929 00000+0 12811-3 0 9991 2 48079 97.9834 283.5208 0001153 332.7783 27.3368 14.80570737245665 PLEIADES NEO 3 1 48268U 21034A 25286.89470536 .00002107 00000+0 27427-3 0 9997 2 48268 97.8948 0.1941 0001279 100.9338 259.2019 14.81676699241184 PLEIADES NEO 4 1 49070U 21073E 25289.22456660 -.00000342 00000+0 -36789-4 0 9997 2 49070 97.8952 2.4865 0001160 100.1976 259.9368 14.81672036225244 LANDSAT 9 1 49260U 21088A 25289.14572896 .00000717 00000+0 16916-3 0 9998 2 49260 98.2159 358.0709 0001320 88.1712 271.9638 14.57111106215463 CSG-2 1 51444U 22008A 25289.16968065 .00000769 00000+0 10318-3 0 9994 2 51444 97.8893 111.3383 0001360 86.8747 273.2622 14.82151454200443 GAOFEN-12 03 1 52912U 22069A 25289.22109035 .00002382 00000+0 32483-3 0 9993 2 52912 97.8513 177.8899 0001607 81.5430 278.5964 14.79575723178533 SWOT 1 54754U 22173A 25289.18638407 .00000103 00000+0 71684-4 0 9996 2 54754 77.6133 4.6864 0000210 244.6155 115.4975 14.00168043145001 GAOFEN-12 04 1 57654U 23123A 25289.18819991 .00002267 00000+0 31058-3 0 9996 2 57654 97.9065 205.8469 0001678 89.2325 270.9079 14.79440190116540 PARS 1 1 59065U 24039Q 25289.16669582 .00015122 00000+0 39051-3 0 9993 2 59065 97.4556 258.9823 0008299 278.3883 81.6421 15.39202160 91020 RESURS-P 4 1 59371U 24061A 25289.18842311 .00005519 00000+0 17459-3 0 9990 2 59371 97.2438 236.6822 0002966 114.5167 245.6385 15.33175365 86395 LEGION 1 1 59625U 24081A 25289.20958782 .00006293 00000+0 32133-3 0 9993 2 59625 97.5265 4.2855 0001986 221.3936 138.7147 15.17054246 80551 LEGION 2 1 59626U 24081B 25289.17626492 .00006230 00000+0 31777-3 0 9994 2 59626 97.5269 4.3383 0002567 152.1095 208.0277 15.17097341 80554 ALOS-4 (DAICHI-4) 1 60182U 24123A 25285.89277130 .00000492 00000+0 72794-4 0 9995 2 60182 97.9224 21.6041 0001435 98.9319 261.2055 14.79486943 69313 LEGION 3 1 60452U 24146A 25289.09141456 .00007924 00000+0 41372-3 0 9991 2 60452 45.0006 259.2066 0018083 254.0017 105.8869 15.16301466 64980 LEGION 4 1 60453U 24146B 25289.15815830 .00007490 00000+0 39298-3 0 9995 2 60453 45.0392 350.4044 0012911 308.5092 51.4629 15.16267156 63842 SENTINEL-2C 1 60989U 24157A 25289.18665638 .00000196 00000+0 91527-4 0 9993 2 60989 98.5661 2.5265 0000974 94.1109 266.0185 14.30827176 58092 IONOSFERA-M 1 1 61735U 24199A 25289.15844374 .00000117 00000+0 71978-4 0 9993 2 61735 98.7466 159.4324 0001961 103.7263 256.4133 14.22695372 93008 IONOSFERA-M 2 1 61736U 24199B 25289.19316589 .00000119 00000+0 72878-4 0 9992 2 61736 98.7465 159.3800 0000805 29.9007 330.2217 14.22697287 96135 BIOMASS 1 63772U 25090A 25289.07399890 .00002038 00000+0 36761-3 0 9990 2 63772 98.0747 114.9064 0001047 94.8777 265.2547 14.67551295 24889 GOSAT-GW (IBUKI GW) 1 64694U 25141A 25286.23775792 .00001327 00000+0 24215-3 0 9996 2 64694 98.0323 222.8766 0001440 84.3858 275.7511 14.67572590 15622 IONOSFERA-M 3 1 64876U 25155A 25289.13272426 .00000179 00000+0 10140-3 0 9997 2 64876 98.5685 252.6549 0001193 151.7646 208.3596 14.21419629 11735 IONOSFERA-M 4 1 64877U 25155B 25289.16782925 .00000187 00000+0 10505-3 0 9995 2 64877 98.5684 252.6094 0001116 118.9989 241.1301 14.21420339 11739 MICROCARB 1 64899U 25156A 25289.14257284 .00001110 00000+0 18479-3 0 9998 2 64899 98.0074 5.4021 0015759 336.5537 23.4949 14.71917772 12063 CO3D 3 1 64900U 25156B 25280.29612237 .00077125 00000+0 10630-2 0 9990 2 64900 97.8266 358.6880 0284953 160.4423 200.8016 15.21762061 11110 CO3D 4 1 64901U 25156C 25286.87892397 .00003765 00000+0 17688-3 0 9998 2 64901 97.4355 4.1031 0001227 75.4413 284.6958 15.20221129 12112 CO3D 2 1 64902U 25156D 25289.21519913 .00008272 00000+0 38489-3 0 9990 2 64902 97.4347 6.3060 0000595 273.8852 86.2315 15.20194294 12461 CO3D 1 1 64903U 25156E 25289.21534806 .00008946 00000+0 41570-3 0 9992 2 64903 97.4348 6.3063 0000873 262.6794 97.4342 15.20215742 12462